| time (UTC) | temp F | wind direction | speed knots | gust knots | rain 1hr in | rain 24hr in | rain mn in | humidity % | barometer mb |
| 20260903011535 | 54 | 320 | 0.0 | 0.0 | 0.00 | 0.00 | 0.00 | 94 | 1018.3 |
| 20260903010040 | 54 | 320 | 0.0 | 0.0 | 0.00 | 0.00 | 0.00 | 94 | 1018.4 |
| 20260903004536 | 54 | 320 | 0.0 | 0.0 | 0.00 | 0.00 | 0.00 | 94 | 1018.4 |
| 20260903003034 | 53 | 320 | 0.0 | 0.0 | 0.00 | 0.00 | 0.00 | 94 | 1018.4 |
| 20260903001532 | 53 | 320 | 0.0 | 0.0 | 0.00 | 0.00 | 0.00 | 93 | 1018.4 |
| 20260903000032 | 53 | 320 | 0.0 | 0.0 | 0.00 | 0.00 | 0.00 | 93 | 1018.4 |
| 20260902234530 | 53 | 320 | 0.0 | 0.0 | 0.00 | 0.00 | 0.00 | 93 | 1018.4 |
| 20260902233029 | 54 | 320 | 0.0 | 0.0 | 0.00 | 0.00 | 0.00 | 92 | 1018.3 |
| 20260902231532 | 54 | 320 | 0.0 | 0.0 | 0.00 | 0.00 | 0.00 | 92 | 1018.3 |
| 20260902230027 | 54 | 320 | 0.0 | 0.0 | 0.00 | 0.00 | 0.00 | 92 | 1018.3 |
| 20260902224538 | 54 | 320 | 0.0 | 0.0 | 0.00 | 0.00 | 0.00 | 92 | 1018.2 |
| 20260902223023 | 54 | 320 | 0.0 | 0.0 | 0.00 | 0.00 | 0.00 | 91 | 1018.3 |
| 20260902221516 | 55 | 320 | 0.0 | 0.0 | 0.00 | 0.00 | 0.00 | 91 | 1018.5 |
| 20260902220010 | 55 | 320 | 0.0 | 0.0 | 0.00 | 0.00 | 0.00 | 91 | 1018.4 |
| 20260902214510 | 55 | 320 | 0.0 | 0.0 | 0.00 | 0.00 | 0.00 | 90 | 1018.4 |
| 20260902213009 | 56 | 320 | 0.0 | 0.0 | 0.00 | 0.00 | 0.00 | 90 | 1018.4 |
| 20260902211508 | 56 | 320 | 0.0 | 0.0 | 0.00 | 0.00 | 0.00 | 90 | 1018.6 |
| 20260902210008 | 56 | 320 | 0.0 | 0.0 | 0.00 | 0.00 | 0.00 | 89 | 1018.5 |
| 20260902204513 | 57 | 320 | 0.0 | 0.0 | 0.00 | 0.00 | 0.00 | 89 | 1018.3 |
| 20260902203008 | 57 | 320 | 0.0 | 0.0 | 0.00 | 0.00 | 0.00 | 88 | 1018.3 |
| 20260902201505 | 57 | 320 | 0.0 | 0.0 | 0.00 | 0.00 | 0.00 | 87 | 1018.2 |
| 20260902200006 | 58 | 320 | 0.0 | 0.0 | 0.00 | 0.00 | 0.00 | 87 | 1018.2 |
| 20260902194509 | 58 | 320 | 0.0 | 0.0 | 0.00 | 0.00 | 0.00 | 86 | 1018.3 |
| 20260902193005 | 59 | 320 | 0.0 | 0.0 | 0.00 | 0.00 | 0.00 | 85 | 1018.2 |
| 20260902191503 | 60 | 320 | 0.0 | 0.0 | 0.00 | 0.00 | 0.00 | 84 | 1018.2 |
| 20260902190004 | 60 | 320 | 0.0 | 0.0 | 0.00 | 0.00 | 0.00 | 82 | 1018.3 |
| 20260902184502 | 61 | 320 | 0.0 | 0.0 | 0.00 | 0.00 | 0.00 | 81 | 1018.4 |
| 20260902183109 | 62 | 320 | 0.0 | 0.0 | 0.00 | 0.00 | 0.00 | 79 | 1018.3 |
| 20260902181501 | 63 | 320 | 0.0 | 0.0 | 0.00 | 0.00 | 0.00 | 77 | 1018.2 |
| 20260902180122 | 64 | 320 | 0.0 | 0.9 | 0.00 | 0.00 | 0.00 | 75 | 1018.1 |
| 20260902174600 | 65 | 320 | 0.0 | 0.0 | 0.00 | 0.00 | 0.00 | 73 | 1018.0 |
| 20260902173100 | 67 | 320 | 0.0 | 0.0 | 0.00 | 0.00 | 0.00 | 70 | 1017.9 |
| 20260902171559 | 67 | 320 | 0.0 | 1.7 | 0.00 | 0.00 | 0.00 | 69 | 1018.0 |
| 20260902170058 | 68 | 308 | 0.9 | 2.6 | 0.00 | 0.00 | 0.00 | 69 | 1018.0 |
| 20260902164559 | 69 | 301 | 0.0 | 0.9 | 0.00 | 0.00 | 0.00 | 70 | 1018.0 |
| 20260902163101 | 69 | 287 | 0.9 | 7.0 | 0.00 | 0.00 | 0.00 | 63 | 1018.2 |
| 20260902160040 | 70 | 192 | 1.7 | 4.3 | 0.00 | 0.00 | 0.00 | 60 | 1018.0 |
| 20260902154539 | 70 | 203 | 0.9 | 3.5 | 0.00 | 0.00 | 0.00 | 61 | 1018.1 |
| 20260902153039 | 70 | 100 | 0.0 | 6.1 | 0.00 | 0.00 | 0.00 | 61 | 1018.1 |
| 20260902151537 | 70 | 142 | 0.0 | 2.6 | 0.00 | 0.00 | 0.00 | 60 | 1018.2 |
| 20260902150035 | 71 | 157 | 2.6 | 5.2 | 0.00 | 0.00 | 0.00 | 57 | 1018.2 |
| 20260902144535 | 71 | 308 | 0.9 | 3.5 | 0.00 | 0.00 | 0.00 | 61 | 1018.3 |
| 20260902143033 | 71 | 281 | 2.6 | 7.0 | 0.00 | 0.00 | 0.00 | 59 | 1018.4 |
| 20260902141536 | 71 | 203 | 0.9 | 3.5 | 0.00 | 0.00 | 0.00 | 61 | 1018.6 |
| 20260902140030 | 71 | 165 | 0.0 | 3.5 | 0.00 | 0.00 | 0.00 | 60 | 1018.6 |
| 20260902134529 | 71 | 270 | 0.0 | 7.8 | 0.00 | 0.00 | 0.00 | 61 | 1018.7 |
| 20260902133030 | 71 | 157 | 0.0 | 2.6 | 0.00 | 0.00 | 0.00 | 60 | 1018.8 |
| 20260902131529 | 71 | 280 | 0.9 | 4.3 | 0.00 | 0.00 | 0.00 | 60 | 1018.9 |
| 20260902130026 | 70 | 160 | 0.9 | 6.1 | 0.00 | 0.00 | 0.00 | 60 | 1019.0 |
| 20260902124526 | 70 | 291 | 0.9 | 5.2 | 0.00 | 0.00 | 0.00 | 60 | 1019.0 |
| 20260902123025 | 71 | 182 | 0.0 | 3.5 | 0.00 | 0.00 | 0.00 | 61 | 1019.0 |
| 20260902121524 | 73 | 277 | 0.9 | 7.0 | 0.00 | 0.00 | 0.00 | 57 | 1019.2 |
| 20260902120023 | 72 | 263 | 0.9 | 7.0 | 0.00 | 0.00 | 0.00 | 59 | 1019.2 |
| 20260902114526 | 71 | 360 | 0.9 | 6.1 | 0.00 | 0.00 | 0.00 | 62 | 1019.4 |
| 20260902113020 | 71 | 285 | 1.7 | 6.1 | 0.00 | 0.00 | 0.00 | 59 | 1019.4 |
| 20260902111520 | 71 | 284 | 0.9 | 8.7 | 0.00 | 0.00 | 0.00 | 59 | 1019.6 |
| 20260902110018 | 70 | 293 | 1.7 | 5.2 | 0.00 | 0.00 | 0.00 | 62 | 1019.7 |
| 20260902104528 | 69 | 294 | 0.9 | 5.2 | 0.00 | 0.00 | 0.00 | 62 | 1019.7 |
| 20260902103016 | 70 | 238 | 2.6 | 9.6 | 0.00 | 0.00 | 0.00 | 58 | 1019.7 |
| 20260902101514 | 72 | 195 | 3.5 | 7.8 | 0.00 | 0.00 | 0.00 | 60 | 1019.8 |
| 20260902100013 | 71 | 248 | 0.0 | 5.2 | 0.00 | 0.00 | 0.00 | 61 | 1019.9 |
| 20260902094517 | 68 | 337 | 0.0 | 5.2 | 0.00 | 0.00 | 0.00 | 66 | 1020.0 |
| 20260902093009 | 70 | 107 | 0.9 | 6.1 | 0.00 | 0.00 | 0.00 | 65 | 1020.0 |
| 20260902091506 | 68 | 279 | 0.0 | 2.6 | 0.00 | 0.00 | 0.00 | 69 | 1020.0 |
| 20260902090005 | 68 | 277 | 1.7 | 6.1 | 0.00 | 0.00 | 0.00 | 69 | 1020.0 |
| 20260902084504 | 68 | 256 | 0.9 | 4.3 | 0.00 | 0.00 | 0.00 | 70 | 1020.1 |
| 20260902083107 | 66 | 250 | 0.0 | 5.2 | 0.00 | 0.00 | 0.00 | 73 | 1020.1 |
| 20260902081530 | 66 | 156 | 0.0 | 6.1 | 0.00 | 0.00 | 0.00 | 74 | 1020.3 |
| 20260902080032 | 67 | 306 | 0.9 | 4.3 | 0.00 | 0.00 | 0.00 | 73 | 1020.2 |
| 20260902074525 | 66 | 140 | 0.9 | 3.5 | 0.00 | 0.00 | 0.00 | 76 | 1020.0 |
| 20260902073021 | 64 | 218 | 1.7 | 5.2 | 0.00 | 0.00 | 0.00 | 80 | 1019.9 |
| 20260902071525 | 63 | 207 | 0.0 | 3.5 | 0.00 | 0.00 | 0.00 | 83 | 1019.9 |
| 20260902070019 | 62 | 187 | 0.0 | 5.2 | 0.00 | 0.00 | 0.00 | 86 | 1019.9 |
| 20260902064510 | 60 | 147 | 0.0 | 1.7 | 0.00 | 0.00 | 0.00 | 91 | 1019.9 |
| 20260902063013 | 58 | 173 | 0.0 | 2.6 | 0.00 | 0.00 | 0.00 | 94 | 1019.9 |
| 20260902061505 | 57 | 178 | 0.0 | 1.7 | 0.00 | 0.00 | 0.00 | 94 | 1020.0 |
| 20260902060014 | 57 | 156 | 0.0 | 2.6 | 0.00 | 0.00 | 0.00 | 95 | 1019.9 |
| 20260902054604 | 56 | 195 | 0.0 | 0.0 | 0.00 | 0.00 | 0.00 | 95 | 1020.0 |
| 20260902053057 | 56 | 155 | 0.0 | 1.7 | 0.00 | 0.00 | 0.00 | 96 | 1020.0 |
| 20260902051556 | 54 | 182 | 0.0 | 1.7 | 0.00 | 0.00 | 0.00 | 96 | 1020.0 |
| 20260902050058 | 52 | 196 | 0.0 | 0.9 | 0.00 | 0.00 | 0.00 | 95 | 1020.0 |
| 20260902044545 | 52 | 204 | 0.0 | 0.0 | 0.00 | 0.00 | 0.00 | 95 | 1020.0 |
| 20260902043042 | 52 | 204 | 0.0 | 0.0 | 0.00 | 0.00 | 0.00 | 95 | 1020.0 |
| 20260902041550 | 51 | 202 | 0.0 | 0.0 | 0.00 | 0.00 | 0.00 | 94 | 1019.8 |
| 20260902040038 | 51 | 196 | 0.0 | 0.0 | 0.00 | 0.00 | 0.00 | 94 | 1019.6 |
| 20260902034536 | 52 | 196 | 0.0 | 0.0 | 0.00 | 0.01 | 0.00 | 94 | 1019.4 |
| 20260902033041 | 52 | 196 | 0.0 | 0.0 | 0.00 | 0.01 | 0.00 | 94 | 1019.1 |
| 20260902031535 | 52 | 196 | 0.0 | 0.0 | 0.00 | 0.01 | 0.00 | 93 | 1019.1 |
| 20260902030031 | 53 | 196 | 0.0 | 0.0 | 0.00 | 0.01 | 0.00 | 93 | 1019.2 |
| 20260902024529 | 53 | 196 | 0.0 | 0.0 | 0.00 | 0.02 | 0.00 | 93 | 1019.2 |
| 20260902023026 | 54 | 196 | 0.0 | 0.0 | 0.00 | 0.02 | 0.00 | 93 | 1019.3 |
| 20260902021532 | 54 | 196 | 0.0 | 0.0 | 0.00 | 0.02 | 0.00 | 93 | 1019.4 |
| 20260902020023 | 55 | 196 | 0.0 | 0.0 | 0.00 | 0.02 | 0.00 | 93 | 1019.4 |
| 20260902014533 | 55 | 196 | 0.0 | 0.0 | 0.00 | 0.02 | 0.00 | 93 | 1019.4 |
| 20260902013020 | 55 | 196 | 0.0 | 0.0 | 0.00 | 0.02 | 0.00 | 93 | 1019.4 |